NOZ3DB ENVA-ENGM

Flight info

Callsign NOZ3DB
Flight time 0h 40m
Altitude 29000
Route UTUNA DCT TUTBI DCT BELGU
Aircraft B738/M-SDE2E3FGHIRWXY/LB1

Departure

Time 2026-05-04 14:59
Airport Trondheim Airport, Værnes (ENVA)

Arrival

Time 2026-05-04 15:39
Airport Oslo-Gardermoen International Airport (ENGM)
Time Latitude Longitude Altitude Speed Heading
2026-05-04 14:40 63.45501 10.91485 38 ft 0 kts 180°
2026-05-04 14:51 63.45514 10.91485 38 ft 4 kts 180°
2026-05-04 14:51 63.45538 10.91486 38 ft 1 kts 180°
2026-05-04 14:52 63.45539 10.91486 38 ft 0 kts 180°
2026-05-04 14:54 63.45538 10.91486 36 ft 1 kts 180°
2026-05-04 14:54 63.45533 10.91489 38 ft 0 kts 166°
2026-05-04 14:54 63.45527 10.91502 36 ft 3 kts 125°
2026-05-04 14:55 63.45547 10.91554 36 ft 7 kts 25°
2026-05-04 14:55 63.45592 10.91628 36 ft 10 kts 65°
2026-05-04 14:55 63.45595 10.91799 38 ft 12 kts 90°
2026-05-04 14:55 63.45595 10.91986 39 ft 12 kts 89°
2026-05-04 14:56 63.45596 10.92168 40 ft 12 kts 89°
2026-05-04 14:56 63.45596 10.92391 41 ft 17 kts 91°
2026-05-04 14:56 63.45594 10.92703 44 ft 22 kts 90°
2026-05-04 14:56 63.45594 10.93044 48 ft 22 kts 90°
2026-05-04 14:57 63.45593 10.93375 53 ft 21 kts 90°
2026-05-04 14:57 63.45592 10.93695 58 ft 20 kts 89°
2026-05-04 14:57 63.45653 10.93963 54 ft 20 kts 43°
2026-05-04 14:57 63.45736 10.94144 59 ft 9 kts 46°
2026-05-04 14:58 63.45757 10.94119 54 ft 4 kts 271°
2026-05-04 14:58 63.45757 10.94091 53 ft 7 kts 269°
2026-05-04 14:58 63.45758 10.93484 53 ft 76 kts 270°
2026-05-04 14:58 63.45760 10.92476 42 ft 119 kts 270°
2026-05-04 14:59 63.45770 10.89521 519 ft 153 kts 271°
2026-05-04 14:59 63.45807 10.87139 1383 ft 154 kts 272°
2026-05-04 14:59 63.45876 10.81526 2242 ft 201 kts 270°
2026-05-04 15:00 63.45790 10.78285 2678 ft 220 kts 251°
2026-05-04 15:00 63.44821 10.75579 3531 ft 234 kts 220°
2026-05-04 15:00 63.43259 10.74129 4290 ft 253 kts 198°
2026-05-04 15:01 63.39622 10.73599 6000 ft 266 kts 187°
2026-05-04 15:01 63.37758 10.73553 6864 ft 268 kts 187°
2026-05-04 15:01 63.35898 10.73499 7736 ft 270 kts 187°
2026-05-04 15:01 63.34001 10.73425 8534 ft 274 kts 187°
2026-05-04 15:02 63.32071 10.73334 9252 ft 281 kts 188°
2026-05-04 15:02 63.30109 10.73236 10018 ft 285 kts 187°
2026-05-04 15:02 63.28048 10.73112 10274 ft 309 kts 187°
2026-05-04 15:02 63.25830 10.72963 10580 ft 326 kts 187°
2026-05-04 15:03 63.23531 10.72819 11213 ft 333 kts 187°
2026-05-04 15:03 63.21233 10.72678 11990 ft 337 kts 186°
2026-05-04 15:03 63.18886 10.72531 12839 ft 339 kts 187°
2026-05-04 15:03 63.16519 10.72376 13616 ft 342 kts 186°
2026-05-04 15:04 63.14123 10.72218 14354 ft 347 kts 186°
2026-05-04 15:04 63.11668 10.72062 15155 ft 350 kts 187°
2026-05-04 15:04 63.09257 10.71902 15975 ft 353 kts 186°
2026-05-04 15:04 63.06793 10.71740 16761 ft 357 kts 186°
2026-05-04 15:05 63.04296 10.71572 17541 ft 361 kts 187°
2026-05-04 15:05 63.01772 10.71399 18251 ft 364 kts 186°
2026-05-04 15:05 62.99244 10.71231 19041 ft 364 kts 187°
2026-05-04 15:05 62.96702 10.71061 19727 ft 367 kts 187°
2026-05-04 15:06 62.94130 10.70886 20324 ft 372 kts 187°
2026-05-04 15:06 62.91530 10.70709 20959 ft 376 kts 187°
2026-05-04 15:06 62.88904 10.70534 21638 ft 379 kts 187°
2026-05-04 15:07 62.84520 10.70249 22881 ft 378 kts 188°
2026-05-04 15:07 62.81899 10.70079 23670 ft 375 kts 188°
2026-05-04 15:07 62.79293 10.69911 24304 ft 374 kts 188°
2026-05-04 15:07 62.76689 10.69740 24857 ft 376 kts 188°
2026-05-04 15:08 62.74072 10.69566 25462 ft 375 kts 188°
2026-05-04 15:08 62.71464 10.69396 26048 ft 374 kts 189°
2026-05-04 15:08 62.68873 10.69228 26712 ft 371 kts 190°
2026-05-04 15:08 62.66294 10.69060 27288 ft 371 kts 190°
2026-05-04 15:09 62.63703 10.68886 27721 ft 374 kts 190°
2026-05-04 15:09 62.61106 10.68711 27703 ft 373 kts 190°
2026-05-04 15:09 62.58519 10.68542 27722 ft 372 kts 190°
2026-05-04 15:10 62.53331 10.68203 27723 ft 373 kts 190°
2026-05-04 15:10 62.50733 10.68036 27722 ft 373 kts 190°
2026-05-04 15:10 62.45544 10.67701 27714 ft 373 kts 190°
2026-05-04 15:11 62.42949 10.67533 27719 ft 374 kts 190°
2026-05-04 15:11 62.40347 10.67365 27652 ft 374 kts 191°
2026-05-04 15:11 62.37755 10.67201 27707 ft 372 kts 191°
2026-05-04 15:11 62.35161 10.67034 27701 ft 374 kts 191°
2026-05-04 15:12 62.32563 10.66868 27701 ft 374 kts 191°
2026-05-04 15:12 62.29962 10.66702 27713 ft 373 kts 191°
2026-05-04 15:12 62.27364 10.66534 27713 ft 374 kts 191°
2026-05-04 15:12 62.24759 10.66367 27704 ft 374 kts 191°
2026-05-04 15:13 62.22156 10.66200 27710 ft 374 kts 191°
2026-05-04 15:13 62.19553 10.66032 27723 ft 374 kts 191°
2026-05-04 15:13 62.16948 10.65867 27727 ft 375 kts 191°
2026-05-04 15:13 62.14333 10.65701 27699 ft 376 kts 191°
2026-05-04 15:14 62.11724 10.65538 27717 ft 375 kts 191°
2026-05-04 15:14 62.09117 10.65376 27658 ft 374 kts 192°
2026-05-04 15:14 62.06554 10.65215 27701 ft 373 kts 192°
2026-05-04 15:14 62.03930 10.65049 27717 ft 373 kts 192°
2026-05-04 15:15 62.01330 10.64883 27715 ft 374 kts 192°
2026-05-04 15:15 61.98764 10.64720 27719 ft 374 kts 192°
2026-05-04 15:15 61.96162 10.64549 27707 ft 374 kts 192°
2026-05-04 15:16 61.91028 10.64223 27355 ft 362 kts 193°
2026-05-04 15:16 61.88521 10.64063 27002 ft 359 kts 193°
2026-05-04 15:16 61.83581 10.63738 26280 ft 352 kts 193°
2026-05-04 15:17 61.81142 10.63577 25843 ft 349 kts 194°
2026-05-04 15:17 61.76339 10.63267 25204 ft 342 kts 195°
2026-05-04 15:17 61.73971 10.63110 24871 ft 340 kts 195°
2026-05-04 15:18 61.71620 10.62955 24515 ft 336 kts 195°
2026-05-04 15:18 61.69292 10.62803 24193 ft 334 kts 195°
2026-05-04 15:18 61.66979 10.62648 23860 ft 331 kts 195°
2026-05-04 15:19 61.62395 10.62346 23178 ft 328 kts 195°
2026-05-04 15:19 61.60121 10.62198 22783 ft 326 kts 195°
2026-05-04 15:19 61.55626 10.61906 22116 ft 319 kts 195°
2026-05-04 15:20 61.53410 10.61765 21740 ft 317 kts 194°
2026-05-04 15:20 61.51220 10.61624 21412 ft 314 kts 194°
2026-05-04 15:20 61.49048 10.61486 21059 ft 310 kts 195°
2026-05-04 15:20 61.46905 10.61351 20775 ft 306 kts 195°
2026-05-04 15:21 61.44788 10.61209 20471 ft 303 kts 195°
2026-05-04 15:21 61.42686 10.61070 20142 ft 301 kts 195°
2026-05-04 15:21 61.38520 10.60807 19534 ft 298 kts 195°
2026-05-04 15:22 61.36488 10.60670 19227 ft 295 kts 194°
2026-05-04 15:22 61.34436 10.60543 18914 ft 293 kts 194°
2026-05-04 15:22 61.30393 10.60283 18325 ft 289 kts 194°
2026-05-04 15:23 61.28385 10.60150 18025 ft 289 kts 194°
2026-05-04 15:23 61.26362 10.60015 17687 ft 293 kts 193°
2026-05-04 15:23 61.24315 10.59888 17348 ft 297 kts 193°
2026-05-04 15:23 61.22239 10.59759 17002 ft 301 kts 191°
2026-05-04 15:24 61.18039 10.62361 16442 ft 323 kts 167°
2026-05-04 15:24 61.13909 10.65897 15780 ft 318 kts 169°
2026-05-04 15:25 61.11845 10.67491 15471 ft 315 kts 170°
2026-05-04 15:25 61.09793 10.69024 15167 ft 312 kts 170°
2026-05-04 15:25 61.07756 10.70540 14817 ft 311 kts 170°
2026-05-04 15:26 61.03703 10.73561 14252 ft 307 kts 169°
2026-05-04 15:26 61.01703 10.75058 13959 ft 305 kts 169°
2026-05-04 15:26 60.97735 10.78042 13308 ft 302 kts 169°
2026-05-04 15:27 60.95765 10.79517 12979 ft 300 kts 169°
2026-05-04 15:27 60.91894 10.82420 12088 ft 294 kts 168°
2026-05-04 15:28 60.88026 10.85306 11199 ft 296 kts 167°
2026-05-04 15:28 60.86087 10.86745 10855 ft 295 kts 167°
2026-05-04 15:28 60.82265 10.89603 10401 ft 286 kts 167°
2026-05-04 15:29 60.80411 10.90994 10198 ft 282 kts 167°
2026-05-04 15:30 60.73154 10.96362 8851 ft 273 kts 166°
2026-05-04 15:30 60.67802 11.00318 7802 ft 269 kts 166°
2026-05-04 15:31 60.64298 11.02898 7201 ft 267 kts 166°
2026-05-04 15:31 60.62551 11.04182 6921 ft 266 kts 166°
2026-05-04 15:32 60.57440 11.07937 6171 ft 254 kts 166°
2026-05-04 15:32 60.54140 11.10353 5676 ft 248 kts 166°
2026-05-04 15:33 60.50994 11.12649 5476 ft 234 kts 166°
2026-05-04 15:34 60.46593 11.15856 5218 ft 226 kts 167°
2026-05-04 15:34 60.45101 11.16936 5037 ft 231 kts 167°
2026-05-04 15:34 60.42079 11.19124 4559 ft 228 kts 168°
2026-05-04 15:35 60.39202 11.19378 4119 ft 199 kts 211°
2026-05-04 15:35 60.37903 11.18473 4024 ft 195 kts 200°
2026-05-04 15:35 60.36592 11.17778 3819 ft 197 kts 200°
2026-05-04 15:36 60.33896 11.16261 3283 ft 205 kts 202°
2026-05-04 15:36 60.32541 11.15482 2994 ft 200 kts 202°
2026-05-04 15:36 60.31233 11.14727 2719 ft 191 kts 201°
2026-05-04 15:37 60.30011 11.14027 2472 ft 174 kts 203°
2026-05-04 15:37 60.28914 11.13392 2240 ft 157 kts 203°
2026-05-04 15:37 60.27899 11.12805 2039 ft 148 kts 203°
2026-05-04 15:37 60.26921 11.12239 1852 ft 143 kts 204°
2026-05-04 15:38 60.26011 11.11712 1648 ft 132 kts 204°
2026-05-04 15:38 60.25155 11.11218 1456 ft 126 kts 205°
2026-05-04 15:38 60.24291 11.10717 1294 ft 131 kts 204°
2026-05-04 15:38 60.23426 11.10225 1101 ft 128 kts 204°
2026-05-04 15:39 60.22579 11.09730 905 ft 126 kts 201°
2026-05-04 15:39 60.21733 11.09246 753 ft 125 kts 202°
2026-05-04 15:39 60.20412 11.08478 677 ft 49 kts 196°
2026-05-04 15:40 60.20150 11.08338 675 ft 29 kts 194°
2026-05-04 15:40 60.19971 11.08307 673 ft 18 kts 168°
2026-05-04 15:40 60.19893 11.08452 672 ft 15 kts 108°
2026-05-04 15:40 60.19863 11.08650 675 ft 14 kts 107°
2026-05-04 15:41 60.19834 11.08850 675 ft 16 kts 106°
2026-05-04 15:41 60.19804 11.09060 680 ft 15 kts 106°
2026-05-04 15:41 60.19771 11.09289 682 ft 20 kts 107°
2026-05-04 15:41 60.19732 11.09566 681 ft 21 kts 105°
2026-05-04 15:42 60.19694 11.09810 681 ft 12 kts 107°
2026-05-04 15:42 60.19676 11.09937 684 ft 8 kts 106°
2026-05-04 15:42 60.19670 11.09974 684 ft 0 kts 106°